Location: Dentlein
(49.1477°N, 10.4231°E)
Time: 03:33:54
(UTC+00:00)

Cosmos 1741 Rocket - Pass Details

Date: 23 May 2024
Orbit: 758 x 781 km, 74.0° (Epoch: 13 June)

Event Time Altitude Azimuth Distance (km) Brightness Sun altitude
Exits shadow 01:51:21 17° 220° (SW) 1,872 5.3 -12.0°
Maximum altitude 01:55:22 61° 297° (WNW) 874 4.2 -11.6°
Drops below altitude 10° 02:00:35 10° 18° (NNE) 2,325 7.7 -11.1°
Sets 02:03:01 0° 22° (NNE) 3,260 8.9 -10.8°
